Charlottetown, Prince Edward Island

4:57 AM ADT on April 22, 2018 (GMT -0300)
Charlottetown

Weather History for CYYG - June, 2013

Change the Weather History Date:

Sunday, June 16, 2013

  Actual Average Record
Temperature  
Mean Temperature 59 °F -  
Max Temperature 68 °F 71 °F 77 °F (2007)
Min Temperature 50 °F 53 °F 37 °F (2017)
Degree Days  
Heating Degree Days 6    
Growing Degree Days 9 (Base 50)    
Moisture  
Dew Point 42 °F    
Average Humidity 53    
Maximum Humidity 82    
Minimum Humidity 20    
Precipitation  
Precipitation 0.08 in 0.11 in - ()
Sea Level Pressure  
Sea Level Pressure 29.81 in    
Wind  
Wind Speed 8 mph ()    
Max Wind Speed 14 mph    
Max Gust Speed 22 mph    
Visibility 14.9 miles    
Events Rain    
Averages and records for this station are not official NWS values.
T = Trace of Precipitation, MM = Missing Value Source: Averaged Metar Reports

Daily Weather History Graph

Daily Weather History Graph

Search for Another Location

Airport or City:

Astronomy

Jun. 16, 2013 Rise Set
Actual Time 5:19 AM ADT 9:06 PM ADT
Civil Twilight 4:40 AM ADT 9:45 PM ADT
Nautical Twilight 3:48 AM ADT 10:38 PM ADT
Astronomical Twilight 2:33 AM ADT 11:53 PM ADT
Moon 1:16 PM ADT (6/16) 12:46 AM ADT (6/16)
Length of Visible Light 17h 04m
Length of Day
15h 46m
Waxing Crescent, 49% of the Moon is Illuminated
Jun 16
Waxing Crescent
Jun 16
First Quarter
Jun 23
Full
Jun 30
Last Quarter
Jul 8
New

Hourly Weather History & Observations

Time (ADT) Temp. Dew Point Humidity Pressure Visibility Wind Dir Wind Speed Gust Speed Precip Events Conditions
12:00 AM 59.0 °F 46.4 °F 63% 29.71 in 15.0 mi WSW 10.4 mph 17.3 mph N/A   Partly Cloudy
1:00 AM 57.2 °F 46.4 °F 67% 29.71 in 15.0 mi WSW 9.2 mph - N/A   Partly Cloudy
2:00 AM 55.4 °F 46.4 °F 72% 29.72 in 15.0 mi WSW 8.1 mph - N/A   Partly Cloudy
3:00 AM 56 °F 46 °F 61% 29.72 in 15 mi WSW 10.4 mph - -   Partly Cloudy
3:00 AM 55.4 °F 46.4 °F 72% 29.72 in 15.0 mi WSW 10.4 mph - N/A   Scattered Clouds
4:00 AM 53.6 °F 46.4 °F 77% 29.72 in 15.0 mi WSW 11.5 mph - N/A   Partly Cloudy
5:00 AM 51.8 °F 46.4 °F 82% 29.74 in 15.0 mi West 8.1 mph - N/A   Partly Cloudy
6:00 AM 51.8 °F 44.6 °F 76% 29.76 in 15.0 mi West 8.1 mph - N/A   Partly Cloudy
7:00 AM 55.4 °F 44.6 °F 67% 29.78 in 15.0 mi West 8.1 mph - N/A   Partly Cloudy
8:00 AM 57.2 °F 41.0 °F 55% 29.80 in 15.0 mi NW 11.5 mph 18.4 mph N/A   Partly Cloudy
9:00 AM 58 °F 36 °F 31% 29.83 in 15 mi WNW 11.5 mph - -   Scattered Clouds
9:00 AM 57.2 °F 35.6 °F 44% 29.83 in 15.0 mi NW 11.5 mph 19.6 mph N/A   Mostly Cloudy
10:00 AM 59.0 °F 33.8 °F 39% 29.84 in 15.0 mi West 10.4 mph 19.6 mph N/A   Scattered Clouds
11:00 AM 60.8 °F 35.6 °F 39% 29.85 in 15.0 mi West 9.2 mph 18.4 mph N/A   Scattered Clouds
12:00 PM 62.6 °F 33.8 °F 34% 29.86 in 15.0 mi West 12.7 mph 21.9 mph N/A   Mostly Cloudy
1:00 PM 64.4 °F 35.6 °F 34% 29.85 in 15.0 mi West 13.8 mph 21.9 mph N/A   Mostly Cloudy
2:00 PM 66.2 °F 37.4 °F 35% 29.85 in 15.0 mi WSW 11.5 mph 19.6 mph N/A   Mostly Cloudy
3:00 PM 67 °F 35 °F 20% 29.86 in 15 mi WSW 11.5 mph - -   Scattered Clouds
3:00 PM 66.2 °F 35.6 °F 32% 29.86 in 15.0 mi WSW 12.7 mph - N/A   Mostly Cloudy
4:00 PM 68.0 °F 39.2 °F 35% 29.85 in 15.0 mi Calm Calm - N/A   Mostly Cloudy
5:00 PM 68.0 °F 39.2 °F 35% 29.85 in 15.0 mi Variable 3.5 mph - N/A   Mostly Cloudy
6:00 PM 64.4 °F 44.6 °F 49% 29.86 in 15.0 mi NE 6.9 mph - N/A   Mostly Cloudy
7:00 PM 64.4 °F 41.0 °F 42% 29.86 in 15.0 mi NE 3.5 mph - N/A   Mostly Cloudy
8:00 PM 60.8 °F 46.4 °F 59% 29.85 in 15.0 mi SSE 6.9 mph - N/A   Mostly Cloudy
9:00 PM 58 °F 47 °F 57% 29.86 in 15 mi ESE 8.1 mph - -   Overcast
9:00 PM 57.2 °F 46.4 °F 67% 29.86 in 15.0 mi ESE 9.2 mph - N/A   Overcast
10:00 PM 57.2 °F 44.6 °F 63% 29.87 in 15.0 mi ESE 8.1 mph - N/A   Overcast
10:07 PM 55.4 °F 44.6 °F 67% 29.88 in 12.0 mi SE 8.1 mph - N/A Rain Light Rain Showers
11:00 PM 53.6 °F 46.4 °F 77% 29.86 in 15.0 mi ENE 4.6 mph - N/A Rain Light Rain Showers